STARLINK-11173, 60192

Orbit data source: Space-Track

STARLINK-11173, 60192 is a payload satellite owned by SpaceX/Seattle (US) in LEO that was launched on Wed, 03 Jul 2024 UTC via an FALCON 9 launch vehicle from the Air Force Eastern Test Range (AFETR). Payload-class satellites include a variety of spacecraft equipped with specific instruments for various scientific and technological missions. These include communications satellites like Starlink; space stations such as the ISS; scientific satellites like the Hubble; Earth observation satellites from companies like Planet Labs, Umbra, and HawkEye 360; GPS; miniature CubeSats for education and research; and military/defense satellites.

Loading next visibility...
Identifier
60192, 2024-124K
Orbit
LEO
Last TLE update
7 hours ago
Origin
Manufacturer
SpaceX/Seattle
Mission
Operational Commercial Communications
Bus & Motor
STARLINK V2M, Unknown motor
Mass
730 kg wet, ~700 kg dry
Launch date (UTC)
2024-07-03 (10 months ago)
Launch vehicle
FALCON 9
Launch site
Air Force Eastern Test Range (AFETR)
Object type
Payload
Rocket body
Debris
Shape & HBR
Box + 2 Pan, 29 m
Radar Cross Section
36.964 m², Large (>1 m²)

Expand to show TLE details & history

TLE from 7 hours ago
0 STARLINK-11173
1 60192U 24124K   25109.55886958 -.00001724  00000-0 -93799-5 0  9990
2 60192  53.1576 319.2511 0000751  80.6397 279.4706 15.69702960 46803
Epoch: 2025-04-19T13:24Z
Definitive object data (Epoch: 2025-04-19T13:24:46.331Z)
Latitude
-0.00001°
Longitude
-89.84229°
Altitude
360.578 km
Speed
7.694 km/s
True Right ascension
21h 17m 00s
True Declination
0° 00' 00"
Sunlit
Object was in daylight at TLE epoch
Visualization TLE readout
Latitude
4.47705°
Longitude
85.40558°
Altitude
360.217 km
Speed
7.695 km/s
Apparent Right ascension
11h 25m 52s
Apparent Declination
-23° 33' 31"
Sunlit
Object is in daylight
Visualization observer readout
Local Sidereal Time
03:08:07
Azimuth
88.026° E
Elevation
-40.847°
Doppler factor
1
Orbital elements
Apogee altitude
360.514 km
Perigee altitude
359.502 km
Semi-major axis
6,738.145 km
Eccentricity
0.0000751
Inclination
53.1576°
RAAN
319.2511°
Arg. of periapsis
80.6397°
True anomaly
279.46211°
Mean anomaly
279.4706°
Eccentric anomaly
279.46636°
Mean motion
3.92403 °/min
BSTAR
-0.0000093799
Orbital period
91.74 mins
Loading maneuver chart data...
Loading SW <> Apogee altitude chart data...
Loading historical data...
Loading historical data...
Loading historical data...
Loading historical data...
Loading historical data...
Loading historical data...
Loading historical data...

STARLINK-11173 Visibility forecast

Observer location: undefined°, undefined°

Span
Click to sort rows by Start time (UTC) header in descending order
Start Az.
Max El. time (UTC)
Max El. Az.
Max El.
End time (UTC)
End Az.
4 mins2025-04-19 23:03:52.656Z333.547° NNW2025-04-19 23:05:52.656Z41.664° NE30.314°2025-04-19 23:07:52.656Z98.389° ESE
|